Terminal Aerodrome Forecast
Issued by NWS Twin Cities, MN

Home | Current Version | Previous Version | Text Only | Print | Product List | Glossary On
Versions: 1 2 3 4 5 6 7 8 9 10 11 12 13 14 15 16 17 18 19 20 21 22 23 24 25 26 27 28 29 30
000
FTUS43 KMPX 301448 AAA
TAFMSP
TAF AMD
KMSP 301448Z 3015/3118 20007KT P6SM BKN110
     FM301900 17008KT P6SM BKN110
     FM310000 14008KT P6SM VCSH OVC090
     FM310500 15011KT P6SM VCSH OVC070
      TEMPO 3105/3108 4SM TSRA OVC045CB
     FM310900 14008KT P6SM -SHRA VCTS SCT030CB OVC045
     FM311500 21010KT P6SM VCSH OVC040=

USA.gov is the U.S. government's official web portal to all federal, state and local government web resources and services.